Terminal Aerodrome Forecast
Issued by NWS Greer, SC

Home | Current Version | Previous Version | Text Only | Print | Product List | Glossary On
Versions: 1 2 3 4 5 6 7 8 9 10 11 12 13 14 15 16 17 18 19 20 21 22 23 24 25 26 27 28 29 30 31 32 33 34 35 36 37 38 39 40
000
FTUS42 KGSP 271457 AAA
TAFCLT
TAF AMD
KCLT 271457Z 2715/2812 34009KT P6SM OVC100
     FM271900 32007G15KT P6SM SCT250
     FM280600 34005KT P6SM FEW250=

USA.gov is the U.S. government's official web portal to all federal, state and local government web resources and services.